Starlink 35678

operational
NORAD ID: 66971 Int'l Des: 2025-288 Owner: SPXS Country: US Constellation: starlink
LEOCIRCULAR

Starlink 35678について

説明を読み込み中...

リアルタイム位置

3D地球を読み込み中...

次回通過

高度履歴

Altitude vs Time

uPlot chart will show altitude changes over time

軌道要素

1 66971C 25288N 25346.10743056 -.01049800 00000+0 -18719-2 0 3467
2 66971 43.0039 171.7891 0001817 269.8918 177.0246 16.01824954 12
Epoch: Dec 12, 2025 • Age: 54 hours

現在のステータス

高度 281.6 km
速度 7.74 km/s
衛星直下点 17.94°N, 147.98°E
打ち上げ日 Dec 8, 2025
運用期間 5 days
タイプ internet

技術仕様

分類 Payload
質量 575.00 kg
乾燥質量 530.00 kg
総質量 575.00 kg
長さ 0.30 m
直径 4.10 m
スパン 29.00 m
形状 Box + pan
製造者 SPXS
バスタイプ Starlink V2MO
フェーズステータス In Orbit
所有者/国 SPXS/US

大規模コンステレーション

Loading constellations...